sat.trackr.live / text

‹ back to catalog

STARLINK-36851

NORAD 67943 · 2026-037M

PAYLOAD ACTIVE UNKNOWN

§ Identity

Operator
Country
US
Launch date
2026-02-24
Launch site
AFETR
Launch vehicle
Mass (kg)
RCS (m²)

Purposes: comms

External: N2YO · Heavens-Above · Gunter

§ Orbital elements

Epoch: 2026-05-25T04:56:31.501824Z

Period
94.27 min
Inclination
42.9989°
Eccentricity
0.0000905
Mean motion
15.27593070 rev/d
Perigee alt
482.4 km
Apogee alt
483.6 km
Semi-major
6,861.1 km
B*
1.2021e-3
RAAN
118.5289°
Arg perigee
261.5840°
Mean anomaly
98.4909°
Rev number
1,504

§ Raw data

STARLINK-368511 67943U 26037M   26145.20592016  .00032979  00000+0  12021-2 0  99972 67943  42.9989 118.5289 0000905 261.5840  98.4909 15.27593070 15044

JSON: /api/v1/satellites/67943 · /tle

For live sub-satellite position, see the globe view (requires WebGL).

§ Visibility from observer

Set your observer location to see the next 7 days of passes ≥ 10°. The values pass through the URL so the page stays shareable.

No JS? Fill the form by hand. The geolocation button needs JavaScript.